Terug naar catalogus

STARLINK-35798

ActiefCommunicatieVLEO
NORAD 66292·PAYLOAD·🇺🇸 United States

Gelanceerd Oct 31, 2025 vanaf Vandenberg Space Force Base

Loading…

Volgende Passages (komende 24 uur)

TLE

VersSource: CelesTrak SupGP

Epoch: Sep 14, 2026, 21:25 UTC

1 66292C 25247AD  26257.89284722  .00035155  00000+0  10391-2 0  2570
2 66292  53.1599  28.0541 0001191  77.8928 357.3745 15.34358868    18

Volg STARLINK-35798 in realtime met AllMySat

Download on the App Store